Вернуться в каталог

STARLINK-34506

АктивенСвязьVLEO
NORAD 64432·PAYLOAD·🇺🇸 United States

Запущен Jun 17, 2025 с Vandenberg Space Force Base

Loading…

Ближайшие Пролёты (ближайшие 24 часа)

TLE

СвежийSource: CelesTrak SupGP

Эпоха: Sep 15, 2026, 04:02 UTC

1 64432C 25129W   26258.16854167  .00019920  00000+0  69234-3 0  2584
2 64432  70.0000 314.9190 0003433 266.9213 117.6735 15.29597707    10

Отслеживайте STARLINK-34506 в реальном времени с AllMySat

Download on the App Store